owner,sensor,date,latitude,longitude,vertical_datum,sea_water_practical_salinity,qcFlag 
DISL,ioos:station:DISL:KATA:1,2016-07-01T00:00:00Z,30.2583,-88.2131,3.886,23.24,1111122 
DISL,ioos:station:DISL:KATA:1,2016-07-01T00:30:00Z,30.2583,-88.2131,3.888,23.55,1111122 
DISL,ioos:station:DISL:KATA:1,2016-07-01T01:00:00Z,30.2583,-88.2131,3.904,23.82,1111122 
DISL,ioos:station:DISL:KATA:1,2016-07-01T01:30:00Z,30.2583,-88.2131,3.906,24.12,1111122 
DISL,ioos:station:DISL:KATA:1,2016-07-01T02:00:00Z,30.2583,-88.2131,3.928,24.31,1111122 
DISL,ioos:station:DISL:KATA:1,2016-07-01T02:30:00Z,30.2583,-88.2131,3.95,24.34,1111122 
DISL,ioos:station:DISL:KATA:1,2016-07-01T03:00:00Z,30.2583,-88.2131,3.96,24.38,1111122 
DISL,ioos:station:DISL:KATA:1,2016-07-01T03:30:00Z,30.2583,-88.2131,4.001,24.42,1111122 
DISL,ioos:station:DISL:KATA:1,2016-07-01T04:00:00Z,30.2583,-88.2131,4.031,24.49,1111122 
DISL,ioos:station:DISL:KATA:1,2016-07-01T04:30:00Z,30.2583,-88.2131,4.056,24.52,1111122 
DISL,ioos:station:DISL:KATA:1,2016-07-01T05:00:00Z,30.2583,-88.2131,4.078,24.61,1111122 
DISL,ioos:station:DISL:KATA:1,2016-07-01T05:30:00Z,30.2583,-88.2131,4.1,24.65,1111122 
DISL,ioos:station:DISL:KATA:1,2016-07-01T06:00:00Z,30.2583,-88.2131,4.112,24.65,1111122 
DISL,ioos:station:DISL:KATA:1,2016-07-01T06:30:00Z,30.2583,-88.2131,4.135,24.69,1111122 
DISL,ioos:station:DISL:KATA:1,2016-07-01T07:00:00Z,30.2583,-88.2131,4.156,24.71,1111122 
DISL,ioos:station:DISL:KATA:1,2016-07-01T07:30:00Z,30.2583,-88.2131,4.177,24.73,1111122 
DISL,ioos:station:DISL:KATA:1,2016-07-01T08:00:00Z,30.2583,-88.2131,4.205,24.78,1111122 
DISL,ioos:station:DISL:KATA:1,2016-07-01T08:30:00Z,30.2583,-88.2131,4.245,23.9,1111122 
DISL,ioos:station:DISL:KATA:1,2016-07-01T09:00:00Z,30.2583,-88.2131,4.268,24.83,1111122 
DISL,ioos:station:DISL:KATA:1,2016-07-01T09:30:00Z,30.2583,-88.2131,4.296,24.83,1111122 
DISL,ioos:station:DISL:KATA:1,2016-07-01T10:00:00Z,30.2583,-88.2131,4.321,24.84,1111122 
DISL,ioos:station:DISL:KATA:1,2016-07-01T10:30:00Z,30.2583,-88.2131,4.338,24.86,1111122 
DISL,ioos:station:DISL:KATA:1,2016-07-01T11:00:00Z,30.2583,-88.2131,4.347,24.91,1111122 
DISL,ioos:station:DISL:KATA:1,2016-07-01T11:30:00Z,30.2583,-88.2131,4.352,24.96,1111122 
DISL,ioos:station:DISL:KATA:1,2016-07-01T12:00:00Z,30.2583,-88.2131,4.335,24.97,1111122 
DISL,ioos:station:DISL:KATA:1,2016-07-01T12:30:00Z,30.2583,-88.2131,4.316,24.96,1111122 
DISL,ioos:station:DISL:KATA:1,2016-07-01T13:00:00Z,30.2583,-88.2131,4.296,24.98,1111122 
DISL,ioos:station:DISL:KATA:1,2016-07-01T13:30:00Z,30.2583,-88.2131,4.288,24.98,1111122 
DISL,ioos:station:DISL:KATA:1,2016-07-01T14:00:00Z,30.2583,-88.2131,4.286,24.96,1111122 
DISL,ioos:station:DISL:KATA:1,2016-07-01T14:30:00Z,30.2583,-88.2131,4.289,24.91,1111122 
DISL,ioos:station:DISL:KATA:1,2016-07-01T15:00:00Z,30.2583,-88.2131,4.284,24.86,1111122 
DISL,ioos:station:DISL:KATA:1,2016-07-01T15:30:00Z,30.2583,-88.2131,4.257,24.81,1111122 
DISL,ioos:station:DISL:KATA:1,2016-07-01T16:00:00Z,30.2583,-88.2131,4.231,24.7,1111122 
DISL,ioos:station:DISL:KATA:1,2016-07-01T16:30:00Z,30.2583,-88.2131,4.201,24.66,1111122 
DISL,ioos:station:DISL:KATA:1,2016-07-01T17:00:00Z,30.2583,-88.2131,4.148,24.45,1111122 
DISL,ioos:station:DISL:KATA:1,2016-07-01T17:30:00Z,30.2583,-88.2131,4.089,24.16,1111122 
DISL,ioos:station:DISL:KATA:1,2016-07-01T18:00:00Z,30.2583,-88.2131,4.029,23.42,1111122 
DISL,ioos:station:DISL:KATA:1,2016-07-01T18:30:00Z,30.2583,-88.2131,3.969,22.98,1111122 
DISL,ioos:station:DISL:KATA:1,2016-07-01T19:00:00Z,30.2583,-88.2131,3.912,23.02,1111122 
DISL,ioos:station:DISL:KATA:1,2016-07-01T19:30:00Z,30.2583,-88.2131,3.859,22.85,1111122 
DISL,ioos:station:DISL:KATA:1,2016-07-01T20:00:00Z,30.2583,-88.2131,3.818,22.65,1111122 
DISL,ioos:station:DISL:KATA:1,2016-07-01T20:30:00Z,30.2583,-88.2131,3.785,22.54,1111122 
DISL,ioos:station:DISL:KATA:1,2016-07-01T21:00:00Z,30.2583,-88.2131,3.762,22.88,1111122 
DISL,ioos:station:DISL:KATA:1,2016-07-01T21:30:00Z,30.2583,-88.2131,3.752,22.73,1111122 
DISL,ioos:station:DISL:KATA:1,2016-07-01T22:00:00Z,30.2583,-88.2131,3.747,22.72,1111122 
DISL,ioos:station:DISL:KATA:1,2016-07-01T22:30:00Z,30.2583,-88.2131,3.749,22.56,1111122 
DISL,ioos:station:DISL:KATA:1,2016-07-01T23:00:00Z,30.2583,-88.2131,3.747,22.65,1111122 
DISL,ioos:station:DISL:KATA:1,2016-07-01T23:30:00Z,30.2583,-88.2131,3.74,22.74,1111122 
DISL,ioos:station:DISL:KATA:1,2016-07-02T00:00:00Z,30.2583,-88.2131,3.736,22.96,1111122 
DISL,ioos:station:DISL:KATA:1,2016-07-02T00:30:00Z,30.2583,-88.2131,3.737,23.03,1111122 
DISL,ioos:station:DISL:KATA:1,2016-07-02T01:00:00Z,30.2583,-88.2131,3.743,23.75,1111122 
DISL,ioos:station:DISL:KATA:1,2016-07-02T01:30:00Z,30.2583,-88.2131,3.755,23.82,1111122 
DISL,ioos:station:DISL:KATA:1,2016-07-02T02:00:00Z,30.2583,-88.2131,3.789,23.88,1111122 
DISL,ioos:station:DISL:KATA:1,2016-07-02T02:30:00Z,30.2583,-88.2131,3.836,24.17,1111122 
DISL,ioos:station:DISL:KATA:1,2016-07-02T03:00:00Z,30.2583,-88.2131,3.875,24.25,1111122 
DISL,ioos:station:DISL:KATA:1,2016-07-02T03:30:00Z,30.2583,-88.2131,3.91,24.52,1111122 
DISL,ioos:station:DISL:KATA:1,2016-07-02T04:00:00Z,30.2583,-88.2131,3.943,25.05,1111122 
DISL,ioos:station:DISL:KATA:1,2016-07-02T04:30:00Z,30.2583,-88.2131,3.967,24.99,1111122 
DISL,ioos:station:DISL:KATA:1,2016-07-02T05:00:00Z,30.2583,-88.2131,3.995,24.63,1111122 
DISL,ioos:station:DISL:KATA:1,2016-07-02T05:30:00Z,30.2583,-88.2131,4.017,24.65,1111122 
DISL,ioos:station:DISL:KATA:1,2016-07-02T06:00:00Z,30.2583,-88.2131,4.042,24.8,1111122 
DISL,ioos:station:DISL:KATA:1,2016-07-02T06:30:00Z,30.2583,-88.2131,4.062,24.77,1111122 
DISL,ioos:station:DISL:KATA:1,2016-07-02T07:00:00Z,30.2583,-88.2131,4.081,24.75,1111122 
DISL,ioos:station:DISL:KATA:1,2016-07-02T07:30:00Z,30.2583,-88.2131,4.106,24.66,1111122 
DISL,ioos:station:DISL:KATA:1,2016-07-02T08:00:00Z,30.2583,-88.2131,4.123,24.3,1111122 
DISL,ioos:station:DISL:KATA:1,2016-07-02T08:30:00Z,30.2583,-88.2131,4.151,24.21,1111122 
DISL,ioos:station:DISL:KATA:1,2016-07-02T09:00:00Z,30.2583,-88.2131,4.184,24.29,1111122 
DISL,ioos:station:DISL:KATA:1,2016-07-02T09:30:00Z,30.2583,-88.2131,4.223,24.21,1111122 
DISL,ioos:station:DISL:KATA:1,2016-07-02T10:00:00Z,30.2583,-88.2131,4.267,24.07,1111122 
DISL,ioos:station:DISL:KATA:1,2016-07-02T10:30:00Z,30.2583,-88.2131,4.303,23.93,1111122 
DISL,ioos:station:DISL:KATA:1,2016-07-02T11:00:00Z,30.2583,-88.2131,4.339,23.66,1111122 
DISL,ioos:station:DISL:KATA:1,2016-07-02T11:30:00Z,30.2583,-88.2131,4.363,23.12,1111122 
DISL,ioos:station:DISL:KATA:1,2016-07-02T12:00:00Z,30.2583,-88.2131,4.368,23.31,1111122 
DISL,ioos:station:DISL:KATA:1,2016-07-02T12:30:00Z,30.2583,-88.2131,4.368,24.26,1111122 
DISL,ioos:station:DISL:KATA:1,2016-07-02T13:00:00Z,30.2583,-88.2131,4.363,24.27,1111122 
DISL,ioos:station:DISL:KATA:1,2016-07-02T13:30:00Z,30.2583,-88.2131,4.354,24.28,1111122 
DISL,ioos:station:DISL:KATA:1,2016-07-02T14:00:00Z,30.2583,-88.2131,4.34,24.13,1111122 
DISL,ioos:station:DISL:KATA:1,2016-07-02T14:30:00Z,30.2583,-88.2131,4.324,24.0,1111122 
DISL,ioos:station:DISL:KATA:1,2016-07-02T15:00:00Z,30.2583,-88.2131,4.31,23.75,1111122 
DISL,ioos:station:DISL:KATA:1,2016-07-02T15:30:00Z,30.2583,-88.2131,4.296,23.25,1111122 
DISL,ioos:station:DISL:KATA:1,2016-07-02T16:00:00Z,30.2583,-88.2131,4.275,22.84,1111122 
DISL,ioos:station:DISL:KATA:1,2016-07-02T16:30:00Z,30.2583,-88.2131,4.246,22.81,1111122 
DISL,ioos:station:DISL:KATA:1,2016-07-02T17:00:00Z,30.2583,-88.2131,4.213,22.9,1111122 
DISL,ioos:station:DISL:KATA:1,2016-07-02T17:30:00Z,30.2583,-88.2131,4.176,22.79,1111122 
DISL,ioos:station:DISL:KATA:1,2016-07-02T18:00:00Z,30.2583,-88.2131,4.132,22.59,1111122 
DISL,ioos:station:DISL:KATA:1,2016-07-02T18:30:00Z,30.2583,-88.2131,4.081,22.46,1111122 
DISL,ioos:station:DISL:KATA:1,2016-07-02T19:00:00Z,30.2583,-88.2131,4.026,22.64,1111122 
DISL,ioos:station:DISL:KATA:1,2016-07-02T19:30:00Z,30.2583,-88.2131,3.98,22.39,1111122 
DISL,ioos:station:DISL:KATA:1,2016-07-02T20:00:00Z,30.2583,-88.2131,3.927,22.36,1111122 
DISL,ioos:station:DISL:KATA:1,2016-07-02T20:30:00Z,30.2583,-88.2131,3.881,22.27,1111122 
DISL,ioos:station:DISL:KATA:1,2016-07-02T21:00:00Z,30.2583,-88.2131,3.84,22.1,1111122 
DISL,ioos:station:DISL:KATA:1,2016-07-02T21:30:00Z,30.2583,-88.2131,3.802,22.1,1111122 
DISL,ioos:station:DISL:KATA:1,2016-07-02T22:00:00Z,30.2583,-88.2131,3.766,22.29,1111122 
DISL,ioos:station:DISL:KATA:1,2016-07-02T22:30:00Z,30.2583,-88.2131,3.748,22.04,1111122 
DISL,ioos:station:DISL:KATA:1,2016-07-02T23:00:00Z,30.2583,-88.2131,3.735,21.95,1111122 
DISL,ioos:station:DISL:KATA:1,2016-07-02T23:30:00Z,30.2583,-88.2131,3.729,21.98,1111122 
DISL,ioos:station:DISL:KATA:1,2016-07-03T00:00:00Z,30.2583,-88.2131,3.727,22.07,1111122 
DISL,ioos:station:DISL:KATA:1,2016-07-03T00:30:00Z,30.2583,-88.2131,3.732,21.96,1111122 
DISL,ioos:station:DISL:KATA:1,2016-07-03T01:00:00Z,30.2583,-88.2131,3.733,21.94,1111122 
DISL,ioos:station:DISL:KATA:1,2016-07-03T01:30:00Z,30.2583,-88.2131,3.734,21.95,1111122 
DISL,ioos:station:DISL:KATA:1,2016-07-03T02:00:00Z,30.2583,-88.2131,3.74,21.88,1111122 
DISL,ioos:station:DISL:KATA:1,2016-07-03T02:30:00Z,30.2583,-88.2131,3.748,22.0,1111122 
DISL,ioos:station:DISL:KATA:1,2016-07-03T03:00:00Z,30.2583,-88.2131,3.774,22.07,1111122 
DISL,ioos:station:DISL:KATA:1,2016-07-03T03:30:00Z,30.2583,-88.2131,3.81,22.24,1111122 
DISL,ioos:station:DISL:KATA:1,2016-07-03T04:00:00Z,30.2583,-88.2131,3.853,22.23,1111122 
DISL,ioos:station:DISL:KATA:1,2016-07-03T04:30:00Z,30.2583,-88.2131,3.89,22.13,1111122 
DISL,ioos:station:DISL:KATA:1,2016-07-03T05:00:00Z,30.2583,-88.2131,3.929,22.11,1111122 
DISL,ioos:station:DISL:KATA:1,2016-07-03T05:30:00Z,30.2583,-88.2131,3.975,22.02,1111122 
DISL,ioos:station:DISL:KATA:1,2016-07-03T06:00:00Z,30.2583,-88.2131,4.008,22.04,1111122 
DISL,ioos:station:DISL:KATA:1,2016-07-03T06:30:00Z,30.2583,-88.2131,4.043,22.03,1111122 
DISL,ioos:station:DISL:KATA:1,2016-07-03T07:00:00Z,30.2583,-88.2131,4.077,22.14,1111122 
DISL,ioos:station:DISL:KATA:1,2016-07-03T07:30:00Z,30.2583,-88.2131,4.094,22.2,1111122 
DISL,ioos:station:DISL:KATA:1,2016-07-03T08:00:00Z,30.2583,-88.2131,4.109,22.28,1111122 
DISL,ioos:station:DISL:KATA:1,2016-07-03T08:30:00Z,30.2583,-88.2131,4.127,22.15,1111122 
DISL,ioos:station:DISL:KATA:1,2016-07-03T09:00:00Z,30.2583,-88.2131,4.142,22.3,1111122 
DISL,ioos:station:DISL:KATA:1,2016-07-03T09:30:00Z,30.2583,-88.2131,4.155,22.37,1111122 
DISL,ioos:station:DISL:KATA:1,2016-07-03T10:00:00Z,30.2583,-88.2131,4.169,22.51,1111122 
DISL,ioos:station:DISL:KATA:1,2016-07-03T10:30:00Z,30.2583,-88.2131,4.192,22.73,1111122 
DISL,ioos:station:DISL:KATA:1,2016-07-03T11:00:00Z,30.2583,-88.2131,4.228,22.71,1111122 
DISL,ioos:station:DISL:KATA:1,2016-07-03T11:30:00Z,30.2583,-88.2131,4.26,22.69,1111122 
DISL,ioos:station:DISL:KATA:1,2016-07-03T12:00:00Z,30.2583,-88.2131,4.302,23.13,1111122 
DISL,ioos:station:DISL:KATA:1,2016-07-03T12:30:00Z,30.2583,-88.2131,4.329,22.91,1111122 
DISL,ioos:station:DISL:KATA:1,2016-07-03T13:00:00Z,30.2583,-88.2131,4.35,23.03,1111122 
DISL,ioos:station:DISL:KATA:1,2016-07-03T13:30:00Z,30.2583,-88.2131,4.366,23.03,1111122 
DISL,ioos:station:DISL:KATA:1,2016-07-03T14:00:00Z,30.2583,-88.2131,4.373,22.94,1111122 
DISL,ioos:station:DISL:KATA:1,2016-07-03T14:30:00Z,30.2583,-88.2131,4.367,23.0,1111122 
DISL,ioos:station:DISL:KATA:1,2016-07-03T15:00:00Z,30.2583,-88.2131,4.348,23.01,1111122 
DISL,ioos:station:DISL:KATA:1,2016-07-03T15:30:00Z,30.2583,-88.2131,4.322,23.02,1111122 
DISL,ioos:station:DISL:KATA:1,2016-07-03T16:00:00Z,30.2583,-88.2131,4.293,23.05,1111122 
DISL,ioos:station:DISL:KATA:1,2016-07-03T16:30:00Z,30.2583,-88.2131,4.264,23.11,1111122 
DISL,ioos:station:DISL:KATA:1,2016-07-03T17:00:00Z,30.2583,-88.2131,4.239,23.04,1111122 
DISL,ioos:station:DISL:KATA:1,2016-07-03T17:30:00Z,30.2583,-88.2131,4.217,23.03,1111122 
DISL,ioos:station:DISL:KATA:1,2016-07-03T18:00:00Z,30.2583,-88.2131,4.196,23.02,1111122 
DISL,ioos:station:DISL:KATA:1,2016-07-03T18:30:00Z,30.2583,-88.2131,4.165,23.08,1111122 
DISL,ioos:station:DISL:KATA:1,2016-07-03T19:00:00Z,30.2583,-88.2131,4.124,22.95,1111122 
DISL,ioos:station:DISL:KATA:1,2016-07-03T19:30:00Z,30.2583,-88.2131,4.071,22.99,1111122 
DISL,ioos:station:DISL:KATA:1,2016-07-03T20:00:00Z,30.2583,-88.2131,4.006,22.89,1111122 
DISL,ioos:station:DISL:KATA:1,2016-07-03T20:30:00Z,30.2583,-88.2131,3.944,22.86,1111122 
DISL,ioos:station:DISL:KATA:1,2016-07-03T21:00:00Z,30.2583,-88.2131,3.876,22.85,1111122 
DISL,ioos:station:DISL:KATA:1,2016-07-03T21:30:00Z,30.2583,-88.2131,3.816,22.72,1111122 
DISL,ioos:station:DISL:KATA:1,2016-07-03T22:00:00Z,30.2583,-88.2131,3.77,22.73,1111122 
DISL,ioos:station:DISL:KATA:1,2016-07-03T22:30:00Z,30.2583,-88.2131,3.733,22.65,1111122 
DISL,ioos:station:DISL:KATA:1,2016-07-03T23:00:00Z,30.2583,-88.2131,3.713,22.55,1111122 
DISL,ioos:station:DISL:KATA:1,2016-07-03T23:30:00Z,30.2583,-88.2131,3.697,22.5,1111122 
DISL,ioos:station:DISL:KATA:1,2016-07-04T00:00:00Z,30.2583,-88.2131,3.686,22.22,1111122 
DISL,ioos:station:DISL:KATA:1,2016-07-04T00:30:00Z,30.2583,-88.2131,3.694,22.16,1111122 
DISL,ioos:station:DISL:KATA:1,2016-07-04T01:00:00Z,30.2583,-88.2131,3.691,22.29,1111122 
DISL,ioos:station:DISL:KATA:1,2016-07-04T01:30:00Z,30.2583,-88.2131,3.703,22.28,1111122 
DISL,ioos:station:DISL:KATA:1,2016-07-04T02:00:00Z,30.2583,-88.2131,3.715,22.13,1111122 
DISL,ioos:station:DISL:KATA:1,2016-07-04T02:30:00Z,30.2583,-88.2131,3.73,22.11,1111122 
DISL,ioos:station:DISL:KATA:1,2016-07-04T03:00:00Z,30.2583,-88.2131,3.737,22.17,1111122 
DISL,ioos:station:DISL:KATA:1,2016-07-04T03:30:00Z,30.2583,-88.2131,3.754,22.21,1111122 
DISL,ioos:station:DISL:KATA:1,2016-07-04T04:00:00Z,30.2583,-88.2131,3.775,22.41,1111122 
DISL,ioos:station:DISL:KATA:1,2016-07-04T04:30:00Z,30.2583,-88.2131,3.807,22.3,1111122 
DISL,ioos:station:DISL:KATA:1,2016-07-04T05:00:00Z,30.2583,-88.2131,3.845,22.21,1111122 
DISL,ioos:station:DISL:KATA:1,2016-07-04T05:30:00Z,30.2583,-88.2131,3.893,22.45,1111122 
DISL,ioos:station:DISL:KATA:1,2016-07-04T06:00:00Z,30.2583,-88.2131,3.938,22.42,1111122 
DISL,ioos:station:DISL:KATA:1,2016-07-04T06:30:00Z,30.2583,-88.2131,3.985,22.39,1111122 
DISL,ioos:station:DISL:KATA:1,2016-07-04T07:00:00Z,30.2583,-88.2131,4.028,22.59,1111122 
DISL,ioos:station:DISL:KATA:1,2016-07-04T07:30:00Z,30.2583,-88.2131,4.047,22.56,1111122 
DISL,ioos:station:DISL:KATA:1,2016-07-04T08:00:00Z,30.2583,-88.2131,4.069,22.61,1111122 
DISL,ioos:station:DISL:KATA:1,2016-07-04T08:30:00Z,30.2583,-88.2131,4.087,22.57,1111122 
DISL,ioos:station:DISL:KATA:1,2016-07-04T09:00:00Z,30.2583,-88.2131,4.078,22.66,1111122 
DISL,ioos:station:DISL:KATA:1,2016-07-04T09:30:00Z,30.2583,-88.2131,4.096,22.75,1111122 
DISL,ioos:station:DISL:KATA:1,2016-07-04T10:00:00Z,30.2583,-88.2131,4.109,22.92,1111122 
DISL,ioos:station:DISL:KATA:1,2016-07-04T10:30:00Z,30.2583,-88.2131,4.134,22.73,1111122 
DISL,ioos:station:DISL:KATA:1,2016-07-04T11:00:00Z,30.2583,-88.2131,4.162,22.95,1111122 
DISL,ioos:station:DISL:KATA:1,2016-07-04T11:30:00Z,30.2583,-88.2131,4.195,22.9,1111122 
DISL,ioos:station:DISL:KATA:1,2016-07-04T12:00:00Z,30.2583,-88.2131,4.24,22.99,1111122 
DISL,ioos:station:DISL:KATA:1,2016-07-04T12:30:00Z,30.2583,-88.2131,4.265,22.93,1111122 
DISL,ioos:station:DISL:KATA:1,2016-07-04T13:00:00Z,30.2583,-88.2131,4.303,22.94,1111122 
DISL,ioos:station:DISL:KATA:1,2016-07-04T13:30:00Z,30.2583,-88.2131,4.325,23.14,1111122 
DISL,ioos:station:DISL:KATA:1,2016-07-04T14:00:00Z,30.2583,-88.2131,4.351,23.16,1111122 
DISL,ioos:station:DISL:KATA:1,2016-07-04T14:30:00Z,30.2583,-88.2131,4.362,23.21,1111122 
DISL,ioos:station:DISL:KATA:1,2016-07-04T15:00:00Z,30.2583,-88.2131,4.365,23.23,1111122 
DISL,ioos:station:DISL:KATA:1,2016-07-04T15:30:00Z,30.2583,-88.2131,4.355,23.24,1111122 
DISL,ioos:station:DISL:KATA:1,2016-07-04T16:00:00Z,30.2583,-88.2131,4.34,23.25,1111122 
DISL,ioos:station:DISL:KATA:1,2016-07-04T16:30:00Z,30.2583,-88.2131,4.315,23.3,1111122 
DISL,ioos:station:DISL:KATA:1,2016-07-04T17:00:00Z,30.2583,-88.2131,4.294,23.32,1111122 
DISL,ioos:station:DISL:KATA:1,2016-07-04T17:30:00Z,30.2583,-88.2131,4.268,23.37,1111122 
DISL,ioos:station:DISL:KATA:1,2016-07-04T18:00:00Z,30.2583,-88.2131,4.238,23.39,1111122 
DISL,ioos:station:DISL:KATA:1,2016-07-04T18:30:00Z,30.2583,-88.2131,4.195,23.33,1111122 
DISL,ioos:station:DISL:KATA:1,2016-07-04T19:00:00Z,30.2583,-88.2131,4.157,23.38,1111122 
DISL,ioos:station:DISL:KATA:1,2016-07-04T19:30:00Z,30.2583,-88.2131,4.112,23.36,1111122 
DISL,ioos:station:DISL:KATA:1,2016-07-04T20:00:00Z,30.2583,-88.2131,4.066,23.34,1111122 
DISL,ioos:station:DISL:KATA:1,2016-07-04T20:30:00Z,30.2583,-88.2131,4.007,23.31,1111122 
DISL,ioos:station:DISL:KATA:1,2016-07-04T21:00:00Z,30.2583,-88.2131,3.967,23.28,1111122 
DISL,ioos:station:DISL:KATA:1,2016-07-04T21:30:00Z,30.2583,-88.2131,3.923,23.24,1111122 
DISL,ioos:station:DISL:KATA:1,2016-07-04T22:00:00Z,30.2583,-88.2131,3.87,23.19,1111122 
DISL,ioos:station:DISL:KATA:1,2016-07-04T22:30:00Z,30.2583,-88.2131,3.826,23.15,1111122 
DISL,ioos:station:DISL:KATA:1,2016-07-04T23:00:00Z,30.2583,-88.2131,3.789,23.04,1111122 
DISL,ioos:station:DISL:KATA:1,2016-07-04T23:30:00Z,30.2583,-88.2131,3.755,22.97,1111122 
DISL,ioos:station:DISL:KATA:1,2016-07-05T00:00:00Z,30.2583,-88.2131,3.723,22.88,1111122 
DISL,ioos:station:DISL:KATA:1,2016-07-05T00:30:00Z,30.2583,-88.2131,3.704,22.88,1111122 
DISL,ioos:station:DISL:KATA:1,2016-07-05T01:00:00Z,30.2583,-88.2131,3.671,22.83,1111122 
DISL,ioos:station:DISL:KATA:1,2016-07-05T01:30:00Z,30.2583,-88.2131,3.648,22.84,1111122 
DISL,ioos:station:DISL:KATA:1,2016-07-05T02:00:00Z,30.2583,-88.2131,3.661,22.85,1111122 
DISL,ioos:station:DISL:KATA:1,2016-07-05T02:30:00Z,30.2583,-88.2131,3.661,22.84,1111122 
DISL,ioos:station:DISL:KATA:1,2016-07-05T03:00:00Z,30.2583,-88.2131,3.69,22.79,1111122 
DISL,ioos:station:DISL:KATA:1,2016-07-05T03:30:00Z,30.2583,-88.2131,3.731,22.88,1111122 
DISL,ioos:station:DISL:KATA:1,2016-07-05T04:00:00Z,30.2583,-88.2131,3.767,22.88,1111122 
DISL,ioos:station:DISL:KATA:1,2016-07-05T04:30:00Z,30.2583,-88.2131,3.792,22.84,1111122 
DISL,ioos:station:DISL:KATA:1,2016-07-05T05:00:00Z,30.2583,-88.2131,3.816,22.83,1111122 
DISL,ioos:station:DISL:KATA:1,2016-07-05T05:30:00Z,30.2583,-88.2131,3.831,22.82,1111122 
DISL,ioos:station:DISL:KATA:1,2016-07-05T06:00:00Z,30.2583,-88.2131,3.839,22.81,1111122 
DISL,ioos:station:DISL:KATA:1,2016-07-05T06:30:00Z,30.2583,-88.2131,3.853,22.8,1111122 
DISL,ioos:station:DISL:KATA:1,2016-07-05T07:00:00Z,30.2583,-88.2131,3.879,22.81,1111122 
DISL,ioos:station:DISL:KATA:1,2016-07-05T07:30:00Z,30.2583,-88.2131,3.901,22.82,1111122 
DISL,ioos:station:DISL:KATA:1,2016-07-05T08:00:00Z,30.2583,-88.2131,3.939,22.83,1111122 
DISL,ioos:station:DISL:KATA:1,2016-07-05T08:30:00Z,30.2583,-88.2131,3.977,22.85,1111122 
DISL,ioos:station:DISL:KATA:1,2016-07-05T09:00:00Z,30.2583,-88.2131,4.002,22.85,1111122 
DISL,ioos:station:DISL:KATA:1,2016-07-05T09:30:00Z,30.2583,-88.2131,4.011,22.91,1111122 
DISL,ioos:station:DISL:KATA:1,2016-07-05T10:00:00Z,30.2583,-88.2131,4.03,22.9,1111122 
DISL,ioos:station:DISL:KATA:1,2016-07-05T10:30:00Z,30.2583,-88.2131,4.041,22.92,1111122 
DISL,ioos:station:DISL:KATA:1,2016-07-05T11:00:00Z,30.2583,-88.2131,4.07,23.02,1111122 
DISL,ioos:station:DISL:KATA:1,2016-07-05T11:30:00Z,30.2583,-88.2131,4.105,23.05,1111122 
DISL,ioos:station:DISL:KATA:1,2016-07-05T12:00:00Z,30.2583,-88.2131,4.149,23.05,1111122 
DISL,ioos:station:DISL:KATA:1,2016-07-05T12:30:00Z,30.2583,-88.2131,4.188,23.03,1111122 
DISL,ioos:station:DISL:KATA:1,2016-07-05T13:00:00Z,30.2583,-88.2131,4.231,23.06,1111122 
DISL,ioos:station:DISL:KATA:1,2016-07-05T13:30:00Z,30.2583,-88.2131,4.273,23.03,1111122 
DISL,ioos:station:DISL:KATA:1,2016-07-05T14:00:00Z,30.2583,-88.2131,4.311,23.06,1111122 
DISL,ioos:station:DISL:KATA:1,2016-07-05T14:30:00Z,30.2583,-88.2131,4.331,23.09,1111122 
DISL,ioos:station:DISL:KATA:1,2016-07-05T15:00:00Z,30.2583,-88.2131,4.343,23.09,1111122 
DISL,ioos:station:DISL:KATA:1,2016-07-05T15:30:00Z,30.2583,-88.2131,4.335,23.16,1111122 
DISL,ioos:station:DISL:KATA:1,2016-07-05T16:00:00Z,30.2583,-88.2131,4.321,23.19,1111122 
DISL,ioos:station:DISL:KATA:1,2016-07-05T16:30:00Z,30.2583,-88.2131,4.293,23.26,1111122 
DISL,ioos:station:DISL:KATA:1,2016-07-05T17:00:00Z,30.2583,-88.2131,4.263,23.25,1111122 
DISL,ioos:station:DISL:KATA:1,2016-07-05T17:30:00Z,30.2583,-88.2131,4.234,23.29,1111122 
DISL,ioos:station:DISL:KATA:1,2016-07-05T18:00:00Z,30.2583,-88.2131,4.203,23.3,1111122 
DISL,ioos:station:DISL:KATA:1,2016-07-05T18:30:00Z,30.2583,-88.2131,4.183,23.24,1111122 
DISL,ioos:station:DISL:KATA:1,2016-07-05T19:00:00Z,30.2583,-88.2131,4.16,23.29,1111122 
DISL,ioos:station:DISL:KATA:1,2016-07-05T19:30:00Z,30.2583,-88.2131,4.154,23.29,1111122 
DISL,ioos:station:DISL:KATA:1,2016-07-05T20:00:00Z,30.2583,-88.2131,4.132,23.29,1111122 
DISL,ioos:station:DISL:KATA:1,2016-07-05T20:30:00Z,30.2583,-88.2131,4.097,23.31,1111122 
DISL,ioos:station:DISL:KATA:1,2016-07-05T21:00:00Z,30.2583,-88.2131,4.027,23.35,1111122 
DISL,ioos:station:DISL:KATA:1,2016-07-05T21:30:00Z,30.2583,-88.2131,3.962,23.33,1111122 
DISL,ioos:station:DISL:KATA:1,2016-07-05T22:00:00Z,30.2583,-88.2131,3.896,23.25,1111122 
DISL,ioos:station:DISL:KATA:1,2016-07-05T22:30:00Z,30.2583,-88.2131,3.846,23.19,1111122 
DISL,ioos:station:DISL:KATA:1,2016-07-05T23:00:00Z,30.2583,-88.2131,3.791,23.09,1111122 
DISL,ioos:station:DISL:KATA:1,2016-07-05T23:30:00Z,30.2583,-88.2131,3.747,23.02,1111122 
DISL,ioos:station:DISL:KATA:1,2016-07-06T00:00:00Z,30.2583,-88.2131,3.703,22.96,1111122 
DISL,ioos:station:DISL:KATA:1,2016-07-06T00:30:00Z,30.2583,-88.2131,3.677,22.93,1111122 
DISL,ioos:station:DISL:KATA:1,2016-07-06T01:00:00Z,30.2583,-88.2131,3.664,22.86,1111122 
DISL,ioos:station:DISL:KATA:1,2016-07-06T01:30:00Z,30.2583,-88.2131,3.662,22.83,1111122 
DISL,ioos:station:DISL:KATA:1,2016-07-06T02:00:00Z,30.2583,-88.2131,3.674,22.86,1111122 
DISL,ioos:station:DISL:KATA:1,2016-07-06T02:30:00Z,30.2583,-88.2131,3.691,22.82,1111122 
DISL,ioos:station:DISL:KATA:1,2016-07-06T03:00:00Z,30.2583,-88.2131,3.712,22.79,1111122 
DISL,ioos:station:DISL:KATA:1,2016-07-06T03:30:00Z,30.2583,-88.2131,3.728,22.81,1111122 
DISL,ioos:station:DISL:KATA:1,2016-07-06T04:00:00Z,30.2583,-88.2131,3.737,22.79,1111122 
DISL,ioos:station:DISL:KATA:1,2016-07-06T04:30:00Z,30.2583,-88.2131,3.744,22.76,1111122 
DISL,ioos:station:DISL:KATA:1,2016-07-06T05:00:00Z,30.2583,-88.2131,3.763,22.76,1111122 
DISL,ioos:station:DISL:KATA:1,2016-07-06T05:30:00Z,30.2583,-88.2131,3.782,22.76,1111122 
DISL,ioos:station:DISL:KATA:1,2016-07-06T06:00:00Z,30.2583,-88.2131,3.819,22.75,1111122 
DISL,ioos:station:DISL:KATA:1,2016-07-06T06:30:00Z,30.2583,-88.2131,3.847,22.77,1111122 
DISL,ioos:station:DISL:KATA:1,2016-07-06T07:00:00Z,30.2583,-88.2131,3.873,22.81,1111122 
DISL,ioos:station:DISL:KATA:1,2016-07-06T07:30:00Z,30.2583,-88.2131,3.897,22.81,1111122 
DISL,ioos:station:DISL:KATA:1,2016-07-06T08:00:00Z,30.2583,-88.2131,3.915,22.82,1111122 
DISL,ioos:station:DISL:KATA:1,2016-07-06T08:30:00Z,30.2583,-88.2131,3.929,22.81,1111122 
DISL,ioos:station:DISL:KATA:1,2016-07-06T09:00:00Z,30.2583,-88.2131,3.95,22.81,1111122 
DISL,ioos:station:DISL:KATA:1,2016-07-06T09:30:00Z,30.2583,-88.2131,3.97,22.87,1111122 
DISL,ioos:station:DISL:KATA:1,2016-07-06T10:00:00Z,30.2583,-88.2131,3.981,22.88,1111122 
DISL,ioos:station:DISL:KATA:1,2016-07-06T10:30:00Z,30.2583,-88.2131,4.001,22.86,1111122 
DISL,ioos:station:DISL:KATA:1,2016-07-06T11:00:00Z,30.2583,-88.2131,4.012,22.84,1111122 
DISL,ioos:station:DISL:KATA:1,2016-07-06T11:30:00Z,30.2583,-88.2131,4.04,22.9,1111122 
DISL,ioos:station:DISL:KATA:1,2016-07-06T12:00:00Z,30.2583,-88.2131,4.069,22.94,1111122 
DISL,ioos:station:DISL:KATA:1,2016-07-06T12:30:00Z,30.2583,-88.2131,4.093,22.96,1111122 
DISL,ioos:station:DISL:KATA:1,2016-07-06T13:00:00Z,30.2583,-88.2131,4.121,22.99,1111122 
DISL,ioos:station:DISL:KATA:1,2016-07-06T13:30:00Z,30.2583,-88.2131,4.165,23.02,1111122 
DISL,ioos:station:DISL:KATA:1,2016-07-06T14:00:00Z,30.2583,-88.2131,4.211,23.01,1111122 